Weather Roundup
Issued by NWS Chicago, IL

Home | Current Version | Previous Version | Graphics & Text | Print | Product List | Glossary On
Versions: 1 2 3 4 5 6 7 8 9 10 11 12 13 14 15 16 17 18 19 20 21 22 23 24 25 26 27 28 29 30 31 32 33 34 35 36 37 38 39 40 41 42 43 44 45 46 47 48 49 50
000
NZUS59 KLOT 241403
HRRLOT

CHICAGO AREA WEATHER ROUNDUP
NATIONAL WEATHER SERVICE CHICAGO/ROMEOVILLE IL
800 AM CST SAT FEB 24 2018

NOTE: "FAIR" INDICATES FEW OR NO CLOUDS BELOW 12,000 FEET WITH NO
SIGNIFICANT WEATHER AND/OR OBSTRUCTIONS TO VISIBILITY.

* THESE STATIONS ARE NOT UNDER NWS QUALITY CONTROL. THEY ALSO MAY NOT
  REPORT WEATHER SUCH AS PRECIPITATION OR FOG.

ILZ005-006-012>014-019>023-241500-
NORTHEAST ILLINOIS

CITY           SKY/WX    TMP DP  RH WIND       PRES   REMARKS
OHARE          CLOUDY    34  28  79 E10       30.16F WCI  26
MIDWAY         CLOUDY    35  30  82 E14       30.16F WCI  26
AURORA         CLOUDY    34  30  85 E13       30.14S WCI  25
LANSING*       CLOUDY    35  33  92 E6        30.17R WCI  30
JOLIET*        CLOUDY    36  31  83 E9G18     30.16S
WAUKEGAN       CLOUDY    33  28  81 E13       30.17F WCI  24
DUPAGE AIRPORT CLOUDY    33  30  88 E18G26    30.14S WCI  22
WHEELING       CLOUDY    35  29  78 E9        30.19S WCI  28
KANKAKEE*      CLOUDY    36  33  89 E9        30.15R
MORRIS*        CLOUDY    35  31  86 E10       30.15R WCI  27
LEWIS AIRPORT* CLOUDY    34  30  85 E13G18    30.15S WCI  25
NORTHERLY ISL    N/A     34  30  86 NE13        N/A  WCI  25
$$

WIZ051-052-058>065-066-070>072-241500-
SOUTHEAST WISCONSIN

CITY           SKY/WX    TMP DP  RH WIND       PRES   REMARKS
MILWAUKEE      CLOUDY    34  27  75 E13       30.19F WCI  25
KENOSHA*       CLOUDY    33  27  78 E14       30.18F WCI  23
RACINE*        CLOUDY    34  27  75 E13       30.21S WCI  25
BURLINGTON     CLOUDY    32  26  80 E8        30.18S WCI  24
WAUKESHA       CLOUDY    28  25  86 E10       30.19F WCI  19
WEST BEND      CLOUDY    30  28  93 E3        30.20S
$$

INZ001>003-010>013-019-020-241500-
NORTHWEST INDIANA

CITY           SKY/WX    TMP DP  RH WIND       PRES   REMARKS
GARY*          CLOUDY    36  32  87 NE10      30.17F
MICHIGAN CITY* NOT AVBL
RENSSELAER*    NOT AVBL
VALPARAISO     CLOUDY    37  32  82 E10       30.16S
$$

LMZ740>746-241500-
SOUTHERN LAKE MICHIGAN

STATION/POSITION TIME  SKY/WX   TEMP WIND        PRES    VSBY
                                AIR  DIR/SP/G
                 (UTC)          (F)  (DEG/KT/KT) (MB)    (MI)
HARRISON CRIB    1340            34   60/ 14/ 15   N/A
BURNHAM HARBOR   1400            34   50/  9/ 15   N/A
CALUMET HARBOR   1330            33   30/ 11/ 14 1021.4R
BURNS HARBOR     1340            34   60/ 10/ 12 1022.4R
MICHIGAN CITY    1340            35   50/ 10/ 11   N/A
$$

ABBREVIATIONS USED IN REMARKS
   TC - TEMPERATURE IN CELSIUS
  WCI - WIND CHILL INDEX
   HX - HEAT INDEX
  VSB - VISIBILITY
$$



USA.gov is the U.S. government's official web portal to all federal, state and local government web resources and services.